Weather reports worldwide

Advertisment
Cazaux, France (7502): temperature & dewpoint: 12.01.2020 14:00:00 - 18.01.2020 14:00:00 (CET)Cazaux, France (7502): temperature 5cm: 12.01.2020 14:00:00 - 18.01.2020 14:00:00 (CET)Cazaux, France (7502): temperature -20cm & temperature -100cm: 12.01.2020 14:00:00 - 18.01.2020 14:00:00 (CET)Cazaux, France (7502): wind speed & gusts: 12.01.2020 14:00:00 - 18.01.2020 14:00:00 (CET)Cazaux, France (7502): wind direction: 12.01.2020 14:00:00 - 18.01.2020 14:00:00 (CET)Cazaux, France (7502): reduced air pressure: 12.01.2020 14:00:00 - 18.01.2020 14:00:00 (CET)Cazaux, France (7502): visibility: 12.01.2020 14:00:00 - 18.01.2020 14:00:00 (CET)Cazaux, France (7502): precipitation: 12.01.2020 14:00:00 - 18.01.2020 14:00:00 (CET)
Date & Time tt [°C] td [°C] tt 5cm [°C] tt -20cm [°C] tt -100cm [°C] ff [km/h] ff [kn] fx [km/h] fx [kn] dd ppp [hPa] vv [km] rr [mm]
18.01.2020 14:00:00 - - - - - - - - - - - - -
18.01.2020 13:00:00 10,1 6,2 8,9 9,5 12,9 30 16 41 22 ESE 1023,7 39 0,0
18.01.2020 12:00:00 7,8 5,9 7,6 9,5 12,9 21 12 32 18 ESE 1025,6 56 0,0
18.01.2020 11:00:00 6,9 5,4 5,5 9,5 12,9 13 7 22 12 E 1026,8 54 0,0
18.01.2020 10:00:00 5,2 4,8 4,1 9,6 12,9 9 5 16 8 E 1027,3 16 0,0
18.01.2020 09:00:00 4,3 3,9 3,5 9,6 12,9 7 4 9 5 NE 1027,9 17 0,0
18.01.2020 08:00:00 4,3 4,0 3,3 9,7 12,9 4 2 10 6 ENE 1028,9 14 0,0
18.01.2020 07:00:00 4,1 3,8 3,1 9,7 12,9 0 0 11 6 N 1029,3 16 0,0
18.01.2020 06:00:00 4,3 4,0 2,4 9,8 12,9 7 4 11 6 E 1029,1 19 0,0
18.01.2020 05:00:00 4,8 4,5 1,9 9,9 12,9 4 2 9 5 SSE 1030,0 23 0,0
18.01.2020 04:00:00 4,6 4,5 1,3 9,9 12,9 8 4 12 7 S 1030,6 39 0,0
18.01.2020 03:00:00 3,8 3,5 0,7 10,0 12,9 8 4 11 6 SSE 1031,2 33 0,0
18.01.2020 02:00:00 4,1 4,0 -0,5 10,0 12,9 5 3 10 5 S 1031,3 34 0,0
18.01.2020 01:00:00 2,7 2,1 -0,5 10,1 12,9 4 2 12 6 S 1031,6 24 0,0
18.01.2020 00:00:00 4,8 3,8 1,7 10,1 12,9 8 4 12 6 SSE 1031,9 39 0,0
17.01.2020 23:00:00 6,6 3,6 2,7 10,2 12,9 3 2 13 7 W 1031,9 45 0,0
17.01.2020 22:00:00 9,1 4,5 4,5 10,2 12,9 12 6 22 12 W 1031,9 52 0,0
17.01.2020 21:00:00 8,3 3,5 4,9 10,1 12,9 6 4 27 15 W 1031,6 59 0,0
17.01.2020 20:00:00 9,9 4,1 8,2 10,1 12,9 19 10 41 22 WNW 1031,3 55 0,0
17.01.2020 19:00:00 9,7 4,7 8,2 10,1 12,9 14 8 40 22 W 1030,4 57 0,0
17.01.2020 18:00:00 10,7 5,0 9,7 10,1 12,9 22 12 41 22 W 1029,6 55 0,0
17.01.2020 17:00:00 11,0 5,3 10,6 10,0 12,9 22 12 41 22 W 1028,9 48 0,0
17.01.2020 16:00:00 11,4 6,1 9,9 10,0 12,9 22 12 53 28 W 1028,1 29 0,0
17.01.2020 15:00:00 11,4 7,9 10,9 9,9 12,9 22 12 51 27 WNW 1027,2 35 0,0
17.01.2020 14:00:00 11,7 7,2 10,0 9,9 12,9 16 8 43 23 W 1027,0 45 0,2
17.01.2020 13:00:00 11,6 7,7 9,3 9,9 12,9 18 10 36 20 W 1026,8 44 0,0
17.01.2020 12:00:00 9,8 7,9 7,1 9,9 12,9 9 5 21 11 WSW 1026,8 23 0,0
17.01.2020 11:00:00 8,5 4,9 6,8 9,9 12,9 13 7 81 44 W 1026,0 17 0,4
17.01.2020 10:00:00 9,7 7,3 8,3 9,9 12,9 11 6 46 25 SW 1024,6 48 0,6
17.01.2020 09:00:00 10,6 8,0 9,1 9,9 12,9 14 8 24 13 WSW 1024,4 12 0,2
17.01.2020 08:00:00 10,0 8,8 9,0 9,9 12,9 11 6 23 12 SW 1023,0 31 0,8
17.01.2020 07:00:00 11,1 9,7 5,8 9,9 12,9 13 7 21 11 W 1022,9 15 0,2
17.01.2020 06:00:00 8,2 7,3 5,8 9,9 12,9 6 4 14 8 SW 1022,1 37 0,0
17.01.2020 05:00:00 10,1 9,2 8,2 9,9 12,9 9 5 50 27 WSW 1021,9 54 4,4
17.01.2020 04:00:00 11,5 9,6 10,2 9,9 12,9 7 4 13 7 WSW 1021,1 30 0,0
17.01.2020 03:00:00 12,7 9,9 10,6 9,8 12,9 0 0 21 11 N 1020,6 29 0,0
17.01.2020 02:00:00 13,3 9,2 9,5 9,9 12,9 17 9 27 15 SW 1019,7 35 0,0
17.01.2020 01:00:00 11,1 7,4 9,4 9,8 12,9 6 3 19 10 WSW 1019,5 51 0,0
17.01.2020 00:00:00 11,8 7,3 10,1 9,8 12,9 11 6 29 16 SSE 1019,2 51 0,2
16.01.2020 23:00:00 11,6 7,5 9,4 9,8 12,9 11 6 25 13 S 1019,6 41 0,0
16.01.2020 22:00:00 11,2 6,9 9,7 9,8 12,9 5 3 32 17 ESE 1019,4 40 0,0
16.01.2020 21:00:00 11,5 7,2 8,8 9,7 12,9 14 8 24 13 SSE 1019,3 46 0,0
16.01.2020 20:00:00 11,0 6,5 9,3 9,7 12,9 15 8 30 16 SSE 1019,2 51 0,0
16.01.2020 19:00:00 12,4 6,9 10,8 9,6 12,9 19 10 38 20 SSE 1019,0 59 0,0
16.01.2020 18:00:00 13,7 7,0 12,2 9,5 12,9 24 13 35 19 SE 1018,7 60 0,0
16.01.2020 17:00:00 15,9 7,4 15,9 9,5 12,9 23 12 33 18 SE 1018,7 49 0,0
16.01.2020 16:00:00 16,6 7,2 16,2 9,4 12,9 21 11 38 21 SSE 1018,9 57 0,0
16.01.2020 15:00:00 17,8 8,1 17,6 9,4 12,9 20 11 36 20 SSE 1019,4 60 0,0
16.01.2020 14:00:00 17,1 7,4 16,1 9,4 12,9 19 10 32 18 SSE 1020,4 60 0,0
16.01.2020 13:00:00 15,3 6,6 12,8 9,3 12,9 16 9 25 14 SSE 1021,4 60 0,0
16.01.2020 12:00:00 12,0 5,4 12,4 9,4 12,9 18 10 31 17 SE 1022,1 40 0,0
16.01.2020 11:00:00 11,3 4,7 10,0 9,5 12,9 14 8 22 12 SSE 1022,5 50 0,0
16.01.2020 10:00:00 8,4 3,8 4,2 9,5 12,9 13 7 20 11 SE 1022,5 44 0,0
16.01.2020 09:00:00 5,5 3,0 1,2 9,6 12,9 11 6 20 11 SE 1022,3 52 0,0
16.01.2020 08:00:00 4,7 2,6 1,7 9,7 12,9 9 5 18 10 SSE 1022,3 49 0,0
16.01.2020 07:00:00 5,0 2,9 -0,4 9,7 12,9 10 5 21 11 SSE 1022,3 48 0,0
16.01.2020 06:00:00 3,9 2,6 -0,4 9,8 12,9 5 3 8 4 S 1022,5 51 0,0
16.01.2020 05:00:00 4,7 2,9 0,1 9,8 12,9 3 2 11 6 S 1022,9 47 0,0
16.01.2020 04:00:00 5,9 3,9 0,9 9,8 12,9 5 3 9 5 SE 1023,4 42 0,0
16.01.2020 03:00:00 5,6 4,4 0,5 9,9 12,9 5 3 9 5 SSW 1023,5 35 0,0
16.01.2020 02:00:00 6,2 5,8 1,6 9,9 12,9 4 2 9 5 SW 1023,5 30 0,0
16.01.2020 01:00:00 6,6 6,3 1,8 9,9 12,9 4 2 8 4 SE 1023,9 25 0,0
16.01.2020 00:00:00 7,2 6,5 4,0 9,8 12,9 3 1 8 5 NE 1024,5 4,1 0,0
15.01.2020 23:00:00 8,9 8,4 6,9 9,8 12,9 4 2 7 4 ENE 1024,7 1,4 0,0
15.01.2020 22:00:00 9,4 9,1 4,5 9,8 12,9 3 2 6 3 E 1024,3 2,0 0,0
15.01.2020 21:00:00 10,5 9,6 8,0 9,7 12,9 0 0 10 5 N 1024,3 17 0,0
15.01.2020 20:00:00 10,8 10,0 9,7 9,7 12,9 9 5 14 7 SE 1024,2 16 0,0
15.01.2020 19:00:00 11,1 9,7 10,0 9,6 12,9 2 1 5 3 W 1023,5 21 0,0
15.01.2020 18:00:00 11,5 9,9 10,7 9,6 12,9 3 2 10 6 SW 1022,7 23 0,0
15.01.2020 17:00:00 13,1 10,3 12,4 9,5 12,9 6 4 18 10 SW 1021,7 40 0,0
15.01.2020 16:00:00 13,4 10,4 12,4 9,4 12,9 12 7 22 12 W 1020,9 30 0,0
15.01.2020 15:00:00 14,3 10,3 13,9 9,4 12,9 16 9 30 16 W 1019,9 41 0,0
15.01.2020 14:00:00 14,4 9,6 15,0 9,4 12,9 24 13 41 22 SSW 1019,0 38 0,0
15.01.2020 13:00:00 14,2 6,3 14,5 9,4 12,9 18 10 28 15 S 1019,0 52 0,0
15.01.2020 12:00:00 13,7 5,8 11,8 9,4 12,9 19 10 28 15 S 1018,4 37 0,0
15.01.2020 11:00:00 10,8 5,1 9,4 9,4 12,9 13 7 29 15 SSE 1017,6 50 0,0
15.01.2020 10:00:00 9,3 4,3 7,0 9,4 12,9 19 10 28 15 SSE 1016,4 45 0,0
15.01.2020 09:00:00 7,7 3,7 6,3 9,5 13,0 14 7 23 12 SSE 1016,2 49 0,0
15.01.2020 08:00:00 7,5 3,2 6,3 9,5 12,9 13 7 23 12 SSE 1015,5 58 0,0
15.01.2020 07:00:00 7,9 3,5 4,1 9,5 12,9 14 7 24 13 SSE 1014,9 60 0,0
15.01.2020 06:00:00 6,5 2,8 3,6 9,6 12,9 10 5 21 11 SE 1014,9 60 0,0
15.01.2020 05:00:00 6,0 2,6 3,8 9,6 12,9 6 3 13 7 SE 1014,8 53 0,0
15.01.2020 04:00:00 7,6 2,9 2,8 9,6 12,9 6 3 21 12 SE 1014,7 50 0,0
15.01.2020 03:00:00 7,0 3,2 4,2 9,7 12,9 6 3 19 10 NNE 1014,9 47 0,0
15.01.2020 02:00:00 7,1 3,3 4,0 9,7 12,9 9 5 25 13 ESE 1015,2 42 0,0
15.01.2020 01:00:00 6,5 3,3 3,1 9,7 12,9 4 2 18 10 SE 1015,7 41 0,0
15.01.2020 00:00:00 6,4 4,2 2,0 9,7 12,9 6 3 14 8 E 1015,8 38 0,0
14.01.2020 23:00:00 6,3 4,1 3,1 9,7 12,9 9 5 16 9 SE 1015,7 38 0,0
14.01.2020 22:00:00 7,0 5,1 3,9 9,7 13,0 11 6 18 10 SE 1015,9 39 0,0
14.01.2020 21:00:00 8,2 5,7 6,2 9,7 12,9 11 6 19 11 SSE 1015,7 49 0,0
14.01.2020 20:00:00 9,5 6,0 7,7 9,7 13,0 15 8 26 14 SSE 1015,5 56 0,0
14.01.2020 19:00:00 9,4 6,1 4,4 9,6 13,0 14 8 19 11 SSE 1015,1 59 0,0
14.01.2020 18:00:00 9,2 5,0 5,7 9,5 13,0 11 6 19 10 SE 1014,9 60 0,0
14.01.2020 17:00:00 14,0 6,1 13,8 9,4 13,0 10 5 26 14 S 1014,9 60 0,0
14.01.2020 16:00:00 16,0 6,1 18,5 9,3 13,0 12 7 21 11 S 1015,1 59 0,0
14.01.2020 15:00:00 15,3 5,8 15,5 9,3 13,0 10 5 21 11 S 1014,9 60 0,0
14.01.2020 14:00:00 14,0 5,6 14,7 9,3 13,0 11 6 21 11 SSE 1015,2 58 0,0
14.01.2020 13:00:00 14,0 5,1 14,7 9,2 13,0 14 8 22 12 SSE 1015,5 60 0,0
14.01.2020 12:00:00 11,7 4,4 12,5 9,2 13,0 13 7 23 13 SSE 1016,0 60 0,0
14.01.2020 11:00:00 9,6 3,6 9,7 9,3 13,0 13 7 19 11 SSE 1016,4 60 0,0
14.01.2020 10:00:00 7,5 3,5 5,8 9,3 13,0 12 6 18 10 SSE 1016,3 55 0,0
14.01.2020 09:00:00 5,7 2,9 4,1 9,3 13,0 7 4 13 7 SE 1015,8 54 0,0
14.01.2020 08:00:00 5,7 2,9 4,3 9,3 13,0 10 5 13 7 SSE 1015,7 52 0,0
14.01.2020 07:00:00 5,2 2,2 4,1 9,3 13,0 7 4 12 7 SE 1015,5 50 0,0
14.01.2020 06:00:00 5,8 2,1 4,6 9,4 13,0 7 4 18 10 S 1015,2 48 0,0
14.01.2020 05:00:00 5,9 2,2 4,8 9,4 13,0 13 7 19 10 S 1015,2 51 0,0
14.01.2020 04:00:00 6,4 2,3 5,0 9,4 13,0 14 7 20 11 S 1015,2 45 0,0
14.01.2020 03:00:00 5,9 2,7 4,7 9,4 13,0 8 4 16 9 S 1015,5 35 0,0
14.01.2020 02:00:00 6,7 3,1 5,1 9,5 13,0 11 6 16 8 S 1015,7 42 0,0
14.01.2020 01:00:00 7,0 3,2 4,9 9,5 13,0 11 6 17 9 S 1016,1 43 0,0
14.01.2020 00:00:00 5,7 3,5 4,4 9,5 13,0 13 7 19 11 SSE 1016,3 41 0,0
13.01.2020 23:00:00 6,0 4,2 2,3 9,5 13,0 9 5 20 11 S 1016,5 44 0,0
13.01.2020 22:00:00 4,9 3,9 1,3 9,5 13,0 10 5 13 7 S 1016,6 47 0,0
13.01.2020 21:00:00 5,7 4,7 0,7 9,5 13,0 6 3 14 7 SSW 1017,1 44 0,0
13.01.2020 20:00:00 5,7 4,3 1,4 9,5 13,0 3 2 8 4 S 1017,0 44 0,0
13.01.2020 19:00:00 6,9 5,2 2,3 9,4 13,0 0 0 11 6 N 1017,1 42 0,0
13.01.2020 18:00:00 8,0 5,3 5,7 9,4 13,0 10 5 14 7 SSE 1017,6 60 0,0
13.01.2020 17:00:00 10,9 7,2 10,1 9,3 13,0 6 3 9 5 SSE 1017,6 58 0,0
13.01.2020 16:00:00 12,6 7,1 14,0 9,2 13,1 4 2 16 9 S 1018,0 58 0,0
13.01.2020 15:00:00 12,3 6,8 12,8 9,2 13,1 10 6 18 10 SSE 1018,6 55 0,0
13.01.2020 14:00:00 11,5 6,4 13,6 9,2 13,0 12 6 19 10 SSE 1019,3 42 0,0
13.01.2020 13:00:00 9,6 5,4 10,3 9,2 13,1 11 6 19 11 SE 1020,6 39 0,0
13.01.2020 12:00:00 7,6 4,9 7,2 9,2 13,1 6 4 13 7 SE 1022,6 37 0,0
13.01.2020 11:00:00 5,8 4,3 5,9 9,3 13,1 6 4 15 8 SE 1022,8 29 0,0
13.01.2020 10:00:00 4,1 3,5 1,6 9,3 13,1 8 4 10 5 E 1023,0 20 0,0
13.01.2020 09:00:00 3,1 2,5 1,3 9,4 13,1 2 1 - - NNE 1023,2 22 -
13.01.2020 08:00:00 3,1 2,5 0,8 9,4 13,1 0 0 11 6 N 1023,7 24 0,0
13.01.2020 07:00:00 3,0 2,6 0,0 9,4 13,1 9 5 16 9 SSE 1024,1 18 0,0
13.01.2020 06:00:00 2,3 1,9 0,9 9,5 13,2 9 5 14 8 SE 1024,6 19 0,0
13.01.2020 05:00:00 3,0 2,4 1,0 9,5 13,2 11 6 13 7 SSE 1025,6 21 0,0
13.01.2020 04:00:00 4,0 3,6 2,5 9,5 13,1 8 5 12 6 SE 1026,5 25 0,0
13.01.2020 03:00:00 4,7 4,3 2,4 9,5 13,1 6 3 15 8 SE 1027,1 27 0,0
13.01.2020 02:00:00 5,8 4,6 2,3 9,4 13,1 5 3 6 3 SSE 1027,8 33 0,0
13.01.2020 01:00:00 6,1 4,9 2,1 9,4 13,2 0 0 11 6 N 1028,5 35 0,0
13.01.2020 00:00:00 7,7 5,5 6,5 9,4 13,2 9 5 16 9 S 1029,1 38 0,0
12.01.2020 23:00:00 8,7 6,3 8,5 9,3 13,2 8 4 18 10 S 1029,4 26 0,0
12.01.2020 22:00:00 8,9 6,5 8,6 9,3 13,2 10 5 16 9 S 1029,4 32 0,0
12.01.2020 21:00:00 9,1 6,7 8,6 9,2 13,2 14 7 20 11 S 1029,9 38 0,0
12.01.2020 20:00:00 9,5 7,1 9,2 9,1 13,2 11 6 16 9 S 1030,4 49 0,0
12.01.2020 19:00:00 9,8 7,7 9,2 9,1 13,2 6 4 11 6 S 1030,4 55 0,0
12.01.2020 18:00:00 10,0 7,6 9,6 9,0 13,2 6 3 10 5 SSW 1030,3 51 0,0
12.01.2020 17:00:00 10,5 7,4 10,5 8,9 13,2 8 4 15 8 SSW 1030,2 54 0,0
12.01.2020 16:00:00 11,0 6,9 11,5 8,8 13,2 10 6 17 9 S 1030,2 58 0,0
12.01.2020 15:00:00 11,1 6,6 13,5 8,8 13,2 11 6 16 9 S 1030,3 54 0,0
12.01.2020 14:00:00 10,3 7,2 10,4 8,8 13,2 9 5 13 7 SSW 1030,7 33 0,0

tt = temperature
td = dewpoint
tt 5cm = temperature 5cm
tt -20cm = temperature -20cm
tt -100cm = temperature -100cm
ff = wind speed
fx = gusts
dd = wind direction
ppp = reduced air pressure
vv = visibility
rr = precipitation

Next stations